Newcastle, WY

1:12 AM MST on December 06, 2019 (GMT -0700)
Mondell

Weather History for KECS - October, 2019

Change the Weather History Date:

Thursday, October 10, 2019

  Actual Average (WUND) Record (WUND)
Temperature  
Mean Temperature 22 °F -  
Max Temperature 26 °F - - (-1)
Min Temperature 17 °F - - (-1)
Degree Days  
Heating Degree Days 44    
Moisture  
Dew Point 15 °F    
Average Humidity 75    
Maximum Humidity 93    
Minimum Humidity 59    
Precipitation  
Precipitation 0.00 in - - ()
Sea Level Pressure  
Sea Level Pressure 30.22 in    
Wind  
Wind Speed 18 mph (NW)    
Max Wind Speed 24 mph    
Max Gust Speed 32 mph    
Visibility 7 miles    
Events Snow    
Averages and records for this station are not official NWS values.
T = Trace of Precipitation, MM = Missing Value Source: NWS Daily Summary

Daily Weather History Graph

Daily Weather History Graph

Search for Another Location

Airport or City:

Astronomy

Oct. 10, 2019 Rise Set
Actual Time 7:05 AM MDT 6:22 PM MDT
Civil Twilight 6:36 AM MDT 6:51 PM MDT
Nautical Twilight 6:03 AM MDT 7:24 PM MDT
Astronomical Twilight 5:29 AM MDT 7:57 PM MDT
Moon 5:33 PM MDT (10/10) 3:42 AM MDT (10/10)
Length of Visible Light 12h 14m
Length of Day
11h 17m
Waxing Gibbous, 91% of the Moon is Illuminated
Oct 10
Waxing Gibbous
Oct 13
Full
Oct 21
Last Quarter
Oct 27
New
Nov 4
First Quarter

Hourly Weather History & Observations

Time (MDT) Temp. Windchill Dew Point Humidity Pressure Visibility Wind Dir Wind Speed Gust Speed Precip Events Conditions
12:15 AM 24.8 °F 10.3 °F 19.4 °F 80% 30.08 in 10.0 mi NNW 20.7 mph 26.5 mph N/A   Overcast
12:35 AM 24.8 °F 11.5 °F 19.4 °F 80% 30.10 in 7.0 mi NW 17.3 mph 24.2 mph N/A Snow Light Snow
12:55 AM 24.8 °F 11.5 °F 17.6 °F 74% 30.12 in 10.0 mi NW 17.3 mph 31.1 mph N/A   Overcast
1:15 AM 24.8 °F 10.0 °F 17.6 °F 74% 30.13 in 10.0 mi NNW 21.9 mph 29.9 mph N/A   Overcast
1:35 AM 23.0 °F 7.6 °F 17.6 °F 80% 30.12 in 5.0 mi NNW 21.9 mph 31.1 mph N/A Snow Light Snow
1:55 AM 23.0 °F 9.6 °F 17.6 °F 80% 30.15 in 2.0 mi NNW 16.1 mph 24.2 mph N/A Snow Light Snow
2:15 AM 23.0 °F 10.1 °F 17.6 °F 80% 30.15 in 5.0 mi NW 15.0 mph 21.9 mph N/A Snow Light Snow
2:55 AM 21.2 °F 6.0 °F 17.6 °F 86% 30.17 in 2.5 mi NNW 19.6 mph 24.2 mph N/A Snow Light Snow
3:15 AM 21.2 °F 7.8 °F 17.6 °F 86% 30.17 in 1.5 mi NW 15.0 mph 20.7 mph N/A Snow Light Snow
3:35 AM 21.2 °F 8.3 °F 17.6 °F 86% 30.16 in 2.0 mi NW 13.8 mph 21.9 mph N/A Snow Light Snow
3:55 AM 21.2 °F 9.5 °F 19.4 °F 93% 30.18 in 1.5 mi NW 11.5 mph 17.3 mph N/A Snow Light Snow
4:15 AM 21.2 °F 8.3 °F 17.6 °F 86% 30.16 in 1.5 mi NNW 13.8 mph 21.9 mph N/A Snow Light Snow
4:35 AM 21.2 °F 7.8 °F 17.6 °F 86% 30.17 in 2.0 mi NW 15.0 mph 20.7 mph N/A Snow Light Snow
4:55 AM 21.2 °F 7.8 °F 17.6 °F 86% 30.17 in 2.0 mi NW 15.0 mph 20.7 mph N/A Snow Light Snow
5:15 AM 21.2 °F 8.3 °F 17.6 °F 86% 30.18 in 10.0 mi NW 13.8 mph 21.9 mph N/A   Overcast
5:55 AM 21.2 °F 7.3 °F 15.8 °F 80% 30.19 in 10.0 mi NW 16.1 mph - N/A   Overcast
6:15 AM 21.2 °F 7.8 °F 15.8 °F 80% 30.19 in 7.0 mi NW 15.0 mph 24.2 mph N/A Snow Light Snow
6:35 AM 21.2 °F 6.8 °F 15.8 °F 80% 30.19 in 4.0 mi NNW 17.3 mph 21.9 mph N/A Snow Light Snow
6:55 AM 21.2 °F 6.4 °F 14.0 °F 74% 30.19 in 4.0 mi NW 18.4 mph 24.2 mph N/A Snow Light Snow
7:15 AM 21.2 °F 8.3 °F 14.0 °F 74% 30.19 in 4.0 mi NW 13.8 mph 24.2 mph N/A Snow Light Snow
7:35 AM 21.2 °F 7.8 °F 14.0 °F 74% 30.21 in 4.0 mi NW 15.0 mph - N/A Snow Light Snow
7:55 AM 21.2 °F 6.8 °F 14.0 °F 74% 30.20 in 10.0 mi NW 17.3 mph - N/A   Overcast
8:15 AM 21.2 °F 5.6 °F 14.0 °F 74% 30.20 in 10.0 mi NW 20.7 mph 26.5 mph N/A   Overcast
8:35 AM 21.2 °F 7.8 °F 15.8 °F 80% 30.21 in 4.0 mi NW 15.0 mph 25.3 mph N/A Snow Light Snow
8:55 AM 21.2 °F 6.4 °F 15.8 °F 80% 30.23 in 3.0 mi NW 18.4 mph 26.5 mph N/A Snow Light Snow
9:15 AM 21.2 °F 5.2 °F 14.0 °F 74% 30.23 in 5.0 mi NW 21.9 mph 27.6 mph N/A   Haze
9:35 AM 21.2 °F 6.0 °F 14.0 °F 74% 30.24 in 5.0 mi NW 19.6 mph 28.8 mph N/A Snow Light Snow
9:55 AM 21.2 °F 6.0 °F 14.0 °F 74% 30.23 in 10.0 mi NW 19.6 mph 25.3 mph N/A   Overcast
10:15 AM 21.2 °F 5.2 °F 14.0 °F 74% 30.24 in 10.0 mi NW 21.9 mph 28.8 mph N/A   Overcast
10:35 AM 23.0 °F 7.2 °F 14.0 °F 68% 30.23 in 10.0 mi NW 23.0 mph 28.8 mph N/A   Overcast
10:55 AM 23.0 °F 7.2 °F 14.0 °F 68% 30.23 in 10.0 mi NW 23.0 mph 28.8 mph N/A   Overcast
11:15 AM 23.0 °F 7.2 °F 12.2 °F 63% 30.23 in 10.0 mi NW 23.0 mph 29.9 mph N/A   Overcast
11:35 AM 24.8 °F 10.3 °F 12.2 °F 59% 30.23 in 10.0 mi NW 20.7 mph 31.1 mph N/A   Overcast
11:55 AM 24.8 °F 12.4 °F 14.0 °F 64% 30.24 in 10.0 mi NW 15.0 mph 31.1 mph N/A   Overcast
12:15 PM 23.0 °F 8.0 °F 14.0 °F 68% 30.24 in 10.0 mi NW 20.7 mph 28.8 mph N/A   Overcast
12:35 PM 24.8 °F 11.1 °F 14.0 °F 64% 30.24 in 10.0 mi NW 18.4 mph 25.3 mph N/A Snow Light Snow
12:55 PM 24.8 °F 10.3 °F 14.0 °F 64% 30.22 in 10.0 mi NW 20.7 mph 28.8 mph N/A   Overcast
1:15 PM 24.8 °F 10.7 °F 15.8 °F 69% 30.22 in 10.0 mi NW 19.6 mph 26.5 mph N/A   Overcast
1:35 PM 24.8 °F 11.1 °F 15.8 °F 69% 30.22 in 7.0 mi NW 18.4 mph 28.8 mph N/A Snow Light Snow
1:55 PM 24.8 °F 10.3 °F 17.6 °F 74% 30.22 in 4.0 mi NW 20.7 mph 27.6 mph N/A Snow Light Snow
2:15 PM 26.6 °F 13.4 °F 17.6 °F 69% 30.22 in 4.0 mi NW 18.4 mph 28.8 mph N/A Snow Light Snow
2:35 PM 26.6 °F 13.1 °F 17.6 °F 69% 30.21 in 3.0 mi NW 19.6 mph 28.8 mph N/A Snow Light Snow
2:55 PM 26.6 °F 11.7 °F 17.6 °F 69% 30.21 in 3.0 mi NW 24.2 mph 32.2 mph N/A Snow Light Snow
3:15 PM 26.6 °F 12.4 °F 17.6 °F 69% 30.21 in 10.0 mi NW 21.9 mph 29.9 mph N/A   Overcast
3:35 PM 26.6 °F 12.4 °F 15.8 °F 64% 30.21 in 7.0 mi NNW 21.9 mph 32.2 mph N/A Snow Light Snow
3:55 PM 26.6 °F 12.4 °F 14.0 °F 59% 30.22 in 10.0 mi NW 21.9 mph 29.9 mph N/A   Mostly Cloudy
4:15 PM 26.6 °F 12.4 °F 14.0 °F 59% 30.22 in 10.0 mi NW 21.9 mph 29.9 mph N/A   Mostly Cloudy
4:35 PM 26.6 °F 12.0 °F 15.8 °F 64% 30.22 in 10.0 mi NW 23.0 mph 28.8 mph N/A   Overcast
4:55 PM 24.8 °F 10.0 °F 14.0 °F 64% 30.23 in 7.0 mi NW 21.9 mph 27.6 mph N/A Snow Light Snow
5:15 PM 24.8 °F 10.3 °F 14.0 °F 64% 30.23 in 10.0 mi NW 20.7 mph 26.5 mph N/A Snow Light Snow
5:35 PM 23.0 °F 8.3 °F 15.8 °F 74% 30.24 in 10.0 mi NW 19.6 mph 25.3 mph N/A   Overcast
5:55 PM 24.8 °F 11.1 °F 14.0 °F 64% 30.24 in 10.0 mi NW 18.4 mph 25.3 mph N/A   Overcast
6:15 PM 23.0 °F 10.1 °F 15.8 °F 74% 30.25 in 10.0 mi NW 15.0 mph 25.3 mph N/A   Overcast
6:35 PM 23.0 °F 10.1 °F 14.0 °F 68% 30.26 in 10.0 mi NW 15.0 mph 21.9 mph N/A   Overcast
6:55 PM 21.2 °F 7.3 °F 14.0 °F 74% 30.26 in 10.0 mi NW 16.1 mph 23.0 mph N/A   Mostly Cloudy
7:15 PM 21.2 °F 8.9 °F 14.0 °F 74% 30.27 in 10.0 mi NW 12.7 mph 23.0 mph N/A Snow Light Snow
7:35 PM 21.2 °F 8.9 °F 14.0 °F 74% 30.27 in 10.0 mi NNW 12.7 mph 18.4 mph N/A Snow Light Snow
7:55 PM 21.2 °F 8.9 °F 14.0 °F 74% 30.27 in 10.0 mi NW 12.7 mph 19.6 mph N/A   Mostly Cloudy
8:15 PM 19.4 °F 5.5 °F 14.0 °F 80% 30.27 in 10.0 mi NW 15.0 mph 20.7 mph N/A   Scattered Clouds
8:35 PM 19.4 °F 7.2 °F 14.0 °F 80% 30.27 in 10.0 mi NNW 11.5 mph 17.3 mph N/A   Clear
8:55 PM 19.4 °F 7.2 °F 14.0 °F 80% 30.27 in 10.0 mi NNW 11.5 mph 17.3 mph N/A   Clear
9:15 PM 17.6 °F 5.0 °F 14.0 °F 86% 30.27 in 10.0 mi NNW 11.5 mph - N/A   Scattered Clouds
9:35 PM 19.4 °F 8.6 °F 14.0 °F 80% 30.27 in 10.0 mi NNW 9.2 mph 17.3 mph N/A   Overcast
9:55 PM 19.4 °F 8.6 °F 14.0 °F 80% 30.26 in 10.0 mi NW 9.2 mph 16.1 mph N/A   Mostly Cloudy
10:15 PM 19.4 °F 7.9 °F 14.0 °F 80% 30.26 in 10.0 mi NW 10.4 mph 18.4 mph N/A   Scattered Clouds
10:35 PM 19.4 °F 7.2 °F 14.0 °F 80% 30.26 in 10.0 mi NW 11.5 mph 18.4 mph N/A   Mostly Cloudy
10:55 PM 19.4 °F 7.9 °F 14.0 °F 80% 30.26 in 10.0 mi NW 10.4 mph - N/A   Overcast
11:15 PM 19.4 °F 7.2 °F 14.0 °F 80% 30.25 in 5.0 mi NW 11.5 mph 17.3 mph N/A Snow Light Snow
11:35 PM 19.4 °F 7.2 °F 14.0 °F 80% 30.25 in 4.0 mi NW 11.5 mph 17.3 mph N/A Snow Light Snow
11:55 PM 19.4 °F 8.6 °F 14.0 °F 80% 30.25 in 3.0 mi NW 9.2 mph - N/A Snow Light Snow